User: anonymous   Login
Location: Unspecified
(0.0000°N, 0.0000°E)
Time: 15:14:42
(UTC+00:00)
Language:

AAUSAT CUBESAT 2 - Orbit

View from above orbital plane
View from above orbital plane
View from above satellite
View from above satellite

Ground track
Ground track

The orbit data is extracted from the following two-line orbital elements,

1 32788U 08021F   18344.51757099  .00000331  00000-0  35639-4 0  9999
2 32788  97.5087   3.5677 0013223 115.2504 245.0089 14.94536834576512
Epoch (UTC): 10 December 2018 12:25:18
Eccentricity: 0.0013223
inclination: 97.5087°
perigee height: 574 km
apogee height: 593 km
right ascension of ascending node: 3.5677°
argument of perigee: 115.2504°
revolutions per day: 14.94536834
mean anomaly at epoch: 245.0089°
orbit number at epoch: 57651

The dashed part of the orbit path shows where the satellite is in the earth's shadow,  

DLR